TimeEDT,TemperatureF,Dew PointF,Humidity,Sea Level PressureIn,VisibilityMPH,Wind Direction,Wind SpeedMPH,Gust SpeedMPH,PrecipitationIn,Events,Conditions,WindDirDegrees,DateUTC
12:53 AM,72.0,68.0,87,30.13,10.0,SSE,4.6,-,N/A,,Mostly Cloudy,150,2013-05-20 04:53:00
1:53 AM,72.0,68.0,87,30.12,10.0,SSE,5.8,-,N/A,,Overcast,160,2013-05-20 05:53:00
2:53 AM,72.0,68.0,87,30.11,10.0,SSE,4.6,-,N/A,,Overcast,160,2013-05-20 06:53:00
3:53 AM,71.6,66.2,83,30.09,10.0,SSE,6.9,-,N/A,,Clear,160,2013-05-20 07:53:00
4:40 AM,71.6,68.0,88,30.10,10.0,South,4.6,-,N/A,,Mostly Cloudy,170,2013-05-20 08:40:00
4:53 AM,72.0,68.0,87,30.10,10.0,South,9.2,-,N/A,,Mostly Cloudy,170,2013-05-20 08:53:00
5:13 AM,71.6,68.0,88,30.10,10.0,South,6.9,-,0.00,Rain,Light Rain,170,2013-05-20 09:13:00
5:53 AM,71.1,66.9,87,30.12,10.0,South,6.9,-,0.01,Rain,Light Rain,190,2013-05-20 09:53:00
6:53 AM,69.8,68.0,94,30.13,9.0,Calm,Calm,-,N/A,Rain,Light Rain,0,2013-05-20 10:53:00
7:45 AM,69.8,66.2,88,30.15,1.8,SW,6.9,-,0.03,Rain,Rain,220,2013-05-20 11:45:00
7:51 AM,69.8,66.2,88,30.15,3.0,SSW,4.6,-,0.04,Rain,Light Rain,200,2013-05-20 11:51:00
7:53 AM,70.0,68.0,93,30.15,5.0,South,5.8,-,0.04,Rain,Light Rain,180,2013-05-20 11:53:00
8:20 AM,69.8,66.2,88,30.16,8.0,SW,15.0,21.9,0.00,Rain,Light Rain,220,2013-05-20 12:20:00
8:36 AM,69.8,66.2,88,30.16,5.0,SSW,6.9,-,0.02,Rain,Rain,200,2013-05-20 12:36:00
8:53 AM,69.1,66.9,93,30.16,7.0,SSW,3.5,-,0.04,Rain,Light Rain,210,2013-05-20 12:53:00
9:53 AM,71.6,69.8,94,30.16,10.0,Variable,3.5,-,N/A,Rain,Light Rain,0,2013-05-20 13:53:00
10:53 AM,73.9,68.0,82,30.15,10.0,SSW,9.2,-,0.00,,Scattered Clouds,200,2013-05-20 14:53:00
11:53 AM,75.9,68.0,76,30.15,10.0,South,9.2,-,0.00,Rain,Light Rain,190,2013-05-20 15:53:00
12:27 PM,78.8,68.0,69,30.14,10.0,South,11.5,-,0.00,,Mostly Cloudy,170,2013-05-20 16:27:00
12:49 PM,78.8,66.2,65,30.13,10.0,South,13.8,23.0,0.00,,Mostly Cloudy,170,2013-05-20 16:49:00
12:53 PM,79.0,66.9,66,30.12,10.0,South,15.0,23.0,0.00,,Scattered Clouds,170,2013-05-20 16:53:00
1:53 PM,75.2,66.2,73,30.12,5.0,South,15.0,-,N/A,Rain,Light Rain,170,2013-05-20 17:53:00
2:53 PM,75.0,68.0,79,30.11,7.0,South,11.5,19.6,0.01,Rain,Light Rain,190,2013-05-20 18:53:00
3:53 PM,75.0,69.1,82,30.09,10.0,South,6.9,-,0.01,,Overcast,180,2013-05-20 19:53:00
4:33 PM,77.0,69.8,78,30.08,10.0,SSW,4.6,-,0.00,,Overcast,210,2013-05-20 20:33:00
4:53 PM,77.0,66.9,71,30.09,10.0,SSW,10.4,20.7,0.00,,Mostly Cloudy,200,2013-05-20 20:53:00
5:21 PM,77.0,66.2,69,30.08,10.0,SW,10.4,-,N/A,,Mostly Cloudy,220,2013-05-20 21:21:00
5:53 PM,77.0,66.0,69,30.08,10.0,South,9.2,-,N/A,,Partly Cloudy,190,2013-05-20 21:53:00
6:32 PM,75.2,66.2,73,30.07,10.0,SSE,6.9,-,N/A,,Mostly Cloudy,160,2013-05-20 22:32:00
6:49 PM,75.2,66.2,73,30.07,10.0,SSE,8.1,-,0.00,Rain,Light Rain,160,2013-05-20 22:49:00
6:53 PM,75.0,66.9,76,30.07,10.0,South,8.1,-,0.00,Rain,Light Rain,170,2013-05-20 22:53:00
7:19 PM,75.2,66.2,73,30.07,10.0,South,5.8,-,0.00,,Overcast,180,2013-05-20 23:19:00
7:38 PM,73.4,66.2,78,30.08,10.0,SSE,4.6,-,0.00,,Overcast,150,2013-05-20 23:38:00
7:53 PM,73.9,66.9,79,30.08,10.0,South,5.8,-,0.00,,Overcast,170,2013-05-20 23:53:00
8:53 PM,73.0,68.0,84,30.09,10.0,South,6.9,-,N/A,,Overcast,170,2013-05-21 00:53:00
9:53 PM,72.0,68.0,87,30.09,10.0,SSE,9.2,-,N/A,,Partly Cloudy,160,2013-05-21 01:53:00
10:53 PM,71.1,68.0,90,30.09,10.0,SSE,8.1,-,N/A,,Clear,160,2013-05-21 02:53:00
11:53 PM,70.0,66.9,90,30.08,10.0,SSE,5.8,-,N/A,,Clear,160,2013-05-21 03:53:00